Home > Weather > Erie > Past weeks

Flag for U.S.A. Weather for the Past 2 Weeks in Erie, Pennsylvania, U.S.A.

Now
41 °F

Overcast.


Feels Like: 36 °F
Forecast: 36 / 44 °F
Wind: 8 mph from South

Location: Erie International Airport

Current Time: Feb 8, 2016 at 10:31:38 AM

Latest Report: Feb 8, 2016 at 9:51 AM


Visibility: 10 mi

Pressure: 29.65 "Hg

Humidity: 51%

Dew point: 24 °F

Location of ErieLocation

Historic Weather in Erie — Graph

°F

Erie Temperature Yesterday

Maximum temperature yesterday: 51 °F (at 2:51 PM)
Minimum temperature yesterday: 30 °F (at 2:51 AM)
Average temperature yesterday: 40 °F

High & Low Weather Summary for the Past Weeks

 TemperatureHumidityPressure
High63 °F (Feb 3, 1:51 PM)90% (Feb 1, 5:51 AM)30.39 "Hg (Feb 1, 5:51 AM)
Low20 °F (Jan 24, 8:51 AM)28% (Jan 25, 3:51 PM)29.56 "Hg (Jan 31, 10:51 PM)
Average37 °F64%29.97 "Hg
* Reported Jan 24 8:51 AM — Feb 8 8:51 AM, Erie, Weather by CustomWeather, © 2016

Note: Actual official high and low records may vary slightly from our data, if they occured in-between our weather recording intervals... More about our weather records

Advertising

Erie Weather History for the Previous 24 Hours

 ConditionsComfort  
Time TempWeatherWind HumidityBarometerVisibility
8:51 AM
Mon, Feb 8
40 °FOvercast.13 mph53%29.66 "Hg10 mi
7:51 AM38 °FPartly sunny.12 mph55%29.66 "Hg10 mi
6:51 AM39 °FPassing clouds.12 mph53%29.67 "Hg10 mi
5:51 AM39 °FPassing clouds.12 mph53%29.68 "Hg10 mi
4:51 AM40 °FClear.10 mph51%29.69 "Hg10 mi
3:51 AM40 °FClear.12 mph51%29.71 "Hg10 mi
2:51 AM41 °FPassing clouds.13 mph49%29.72 "Hg10 mi
1:51 AM41 °FOvercast.13 mph49%29.75 "Hg10 mi
12:51 AM42 °FClear.12 mph47%29.77 "Hg10 mi
11:51 PM
Sun, Feb 7
42 °FPassing clouds.13 mph47%29.80 "Hg10 mi
10:51 PM43 °FClear.13 mph45%29.82 "Hg10 mi
9:51 PM44 °FClear.12 mph45%29.84 "Hg10 mi
8:51 PM44 °FClear.12 mph45%29.86 "Hg10 mi
7:51 PM45 °FClear.8 mph44%29.87 "Hg10 mi
6:51 PM47 °FClear.8 mph41%29.88 "Hg10 mi
5:51 PM47 °FClear.10 mph41%29.88 "Hg10 mi
4:51 PM49 °FPartly sunny.8 mph38%29.88 "Hg10 mi
3:51 PM50 °FScattered clouds.10 mph36%29.91 "Hg10 mi
2:51 PM51 °FPassing clouds.12 mph35%29.91 "Hg10 mi
1:51 PM50 °FScattered clouds.15 mph35%29.93 "Hg10 mi
12:51 PM47 °FOvercast.13 mph41%29.97 "Hg10 mi
11:51 AM45 °FSunny.17 mph44%30.00 "Hg10 mi
10:51 AM41 °FSunny.18 mph47%30.03 "Hg10 mi
Weather by CustomWeather, © 2016

See weather overviewHow to use our weather pages